This is the latest recevied weather packets stored in our database for station/object K2CCS. If no packets are shown the sender has not sent any weather packets the latest 10 day(s).
| Time | Temp. | Humidity | Pressure | Rain* | Wind** | Luminosity | Snow |
|---|---|---|---|---|---|---|---|
| 1777232703 | 20° C | 29% | 1023.2 hPa | 0 mm | - | 519 W/m² | - |
| 1777232401 | 19.44° C | 30% | 1023.2 hPa | 0 mm | - | 539 W/m² | - |
| 1777232097 | 20° C | 29% | 1023.3 hPa | 0 mm | - | 552 W/m² | - |
| 1777231795 | 19.44° C | 30% | 1023.3 hPa | 0 mm | - | 527 W/m² | - |
| 1777231491 | 20° C | 30% | 1023.3 hPa | 0 mm | - | 471 W/m² | - |
| 1777231187 | 19.44° C | 30% | 1023.4 hPa | 0 mm | - | 520 W/m² | - |
| 1777230883 | 19.44° C | 29% | 1023.2 hPa | 0 mm | - | 462 W/m² | - |
| 1777230579 | 18.89° C | 29% | 1023.4 hPa | 0 mm | - | 355 W/m² | - |
| 1777230275 | 19.44° C | 30% | 1023.4 hPa | 0 mm | - | 383 W/m² | - |
| 1777229972 | 18.89° C | 31% | 1023.4 hPa | 0 mm | - | 470 W/m² | - |
| 1777229668 | 19.44° C | 31% | 1023.6 hPa | 0 mm | - | 228 W/m² | - |
| 1777229365 | 19.44° C | 31% | 1023.7 hPa | 0 mm | - | 582 W/m² | - |
| 1777229062 | 18.89° C | 32% | 1023.7 hPa | 0 mm | - | 587 W/m² | - |
| 1777228760 | 18.33° C | 32% | 1023.9 hPa | 0 mm | - | 311 W/m² | - |
| 1777228455 | 18.89° C | 32% | 1023.8 hPa | 0 mm | - | 330 W/m² | - |
| 1777228150 | 18.33° C | 33% | 1023.8 hPa | 0 mm | - | 321 W/m² | - |
| 1777227849 | 18.33° C | 32% | 1023.9 hPa | 0 mm | - | 554 W/m² | - |
| 1777227547 | 18.33° C | 34% | 1023.8 hPa | 0 mm | - | 484 W/m² | - |
| 1777227242 | 18.89° C | 33% | 1023.6 hPa | 0 mm | - | 603 W/m² | - |
| 1777226939 | 18.33° C | 34% | 1023.7 hPa | 0 mm | - | 618 W/m² | - |
| 1777226637 | 18.89° C | 35% | 1023.9 hPa | 0 mm | - | 628 W/m² | - |
| 1777226333 | 18.33° C | 36% | 1024 hPa | 0 mm | - | 638 W/m² | - |
| 1777226029 | 18.89° C | 35% | 1023.8 hPa | 0 mm | - | 656 W/m² | - |
| 1777225724 | 18.33° C | 35% | 1023.7 hPa | 0 mm | - | 653 W/m² | - |
| 1777225422 | 18.33° C | 35% | 1023.9 hPa | 0 mm | - | 665 W/m² | - |
* Rain latest hour (hover to see other rain measurements)
** Current wind speed in m/s (hover to see current wind gust speed)